Flag for Germany Weather past 2 weeks in Sindelfingen, Baden-Württemberg, Germany

Now
64 °F

Passing clouds.


Feels Like: 64 °F
Forecast: 54 / 78 °F
Wind: 7 mph from East

Location: Stuttgart-Echterdingen

Current Time: Jul 31, 2015 at 11:25:59 AM

Latest Report: Jul 31, 2015 at 10:50 AM


Visibility: N/A

Pressure: 30.09 "Hg

Humidity: 56%

Dew point: 48 °F

Location of SindelfingenLocation

Historic Weather in Sindelfingen — Graph

°F

Sindelfingen temperature yesterday

Maximum temperature yesterday: 68 °F (at 5:20 PM)
Minimum temperature yesterday: 50 °F (at 3:50 AM)
Average temperature yesterday: 59 °F

Past Weeks' High & Low Weather Summary

 TemperatureHumidityPressure
High95 °F (Jul 22, 2:20 PM)94% (Jul 23, 1:50 AM)30.12 "Hg (Jul 23, 1:50 AM)
Low46 °F (Jul 31, 5:50 AM)26% (Jul 16, 5:20 PM)29.71 "Hg (Jul 24, 7:20 PM)
Average70 °F62%29.95 "Hg
* Reported Jul 16 10:20 AM — Jul 31 10:20 AM, Sindelfingen, Weather by CustomWeather, © 2015

Note: Actual official high and low records may vary slightly from our data, if they occured in-between our weather recording intervals... More about our weather records

Advertising

Sindelfingen weather history for previous 24 hours

 ConditionsComfort  
Time TempWeatherWind HumidityBarometerVisibility
10:20 AM
Fri, Jul 31
63 °FPassing clouds.6 mph56%30.09 "HgN/A
9:50 AM61 °FPassing clouds.3 mph59%30.09 "HgN/A
9:20 AM59 °FPassing clouds.5 mph63%30.09 "HgN/A
8:50 AM57 °FPassing clouds.5 mph72%30.09 "HgN/A
8:20 AM55 °FSunny.2 mph77%30.09 "Hg10 mi
7:50 AM54 °FSunny.1 mph77%30.09 "Hg10 mi
7:20 AM52 °FSunny.1 mph82%30.09 "Hg10 mi
6:50 AM48 °FClear.3 mph87%30.09 "Hg10 mi
6:20 AM46 °FClear.3 mph87%30.09 "Hg10 mi
5:50 AM46 °FClear.1 mph87%30.09 "Hg10 mi
5:20 AM48 °FClear.3 mph87%30.09 "Hg10 mi
4:50 AM48 °FClear.2 mph87%30.09 "Hg10 mi
4:20 AM50 °FClear.2 mph82%30.09 "Hg10 mi
3:50 AM52 °FClear.3 mph82%30.09 "Hg10 mi
3:20 AM52 °FPassing clouds.3 mph77%30.09 "HgN/A
2:50 AM52 °FClear.7 mph77%30.09 "Hg10 mi
2:20 AM54 °FClear.6 mph72%30.09 "Hg10 mi
1:50 AM54 °FClear.7 mph77%30.09 "Hg10 mi
1:20 AM55 °FClear.7 mph67%30.09 "Hg10 mi
12:50 AM55 °FClear.8 mph67%30.09 "Hg10 mi
12:20 AM57 °FClear.7 mph63%30.09 "Hg10 mi
11:20 PM
Thu, Jul 30
59 °FClear.8 mph59%30.07 "Hg10 mi
10:50 PM61 °FClear.9 mph55%30.07 "Hg10 mi
10:20 PM61 °FPassing clouds.6 mph52%30.07 "HgN/A
9:50 PM63 °FSunny.6 mph49%30.04 "Hg10 mi
9:20 PM63 °FSunny.5 mph49%30.04 "Hg10 mi
8:50 PM64 °FSunny.3 mph46%30.04 "Hg10 mi
8:20 PM64 °FPassing clouds.7 mph43%30.04 "HgN/A
7:50 PM68 °FPassing clouds.13 mph38%30.01 "HgN/A
7:20 PM68 °FPassing clouds.9 mph38%30.01 "HgN/A
6:50 PM66 °FSunny.1 mph46%30.01 "Hg10 mi
6:20 PM66 °FSunny.2 mph46%30.01 "Hg10 mi
5:50 PM68 °FSunny.2 mph40%30.01 "Hg10 mi
5:20 PM68 °FSunny.5 mph40%30.01 "Hg10 mi
4:50 PM66 °FPassing clouds.5 mph43%30.01 "HgN/A
4:20 PM66 °FPassing clouds.7 mph46%30.01 "HgN/A
3:50 PM66 °FPassing clouds.8 mph43%30.01 "HgN/A
3:20 PM66 °FPassing clouds.7 mph46%30.01 "HgN/A
2:50 PM66 °FPassing clouds.7 mph46%30.01 "HgN/A
2:20 PM64 °FPassing clouds.7 mph46%30.01 "HgN/A
1:50 PM64 °FPassing clouds.10 mph49%30.01 "HgN/A
1:20 PM64 °FPartly sunny.9 mph49%30.01 "HgN/A
12:50 PM64 °FPartly sunny.9 mph52%30.01 "HgN/A
12:20 PM63 °FBroken clouds.10 mph56%30.01 "HgN/A
11:50 AM63 °FBroken clouds.9 mph56%30.01 "HgN/A
11:20 AM63 °FBroken clouds.9 mph59%30.01 "HgN/A
Weather by CustomWeather, © 2015

See weather overviewHow to use our weather pages